31P/Schwassmann-Wachmann 2 (2002)

Japanese version
Home page
Updated on May 3, 2012

---------------------------------------------------------------------

* Profile

* Orbital Elements

Epoch 2002 Jan. 6.0 TT = JDT 2452280.5
T 2002 Jan. 18.50590 TT                                 MPC
q   3.4085520            (2000.0)            P               Q
n   0.11305977     Peri.   18.40381     -0.67592417     -0.73341054
a   4.2357533      Node   114.19274     +0.66580563     -0.64979603
e   0.1952903      Incl.    4.54969     +0.31595788     -0.19968502
P   8.72
From 592 observations 2000 Nov. 24-2012 Apr. 28, mean residual 0".6.

* Finding Charts

* Magnitudes Graph

        m1 = 4.5 + 5 log d + 20.0 log r

---------------------------------------------------------------------

The orbital elements are published on M.P.E.C. 2012-H90.
The charts are made with StellaNavigator Ver.2.0 for Windows (AstroArts / ASCII).
The magnitudes graphs are made with Comet for Windows.

---------------------------------------------------------------------

Copyright(C) Seiichi Yoshida (comet@aerith.net). All rights reserved.